Home > Weather > Emsdetten > Past weeks

Flag for Germany Past Weather in Emsdetten, North Rhine-Westphalia, Germany — Yesterday and Last 2 Weeks

Now
59 °F

Fog.


Feels Like: 59 °F
Forecast: 64 / 76 °F
Wind: No wind

Location: Muenster / Osnabrueck

Current Time: Jul 24, 2016 at 7:10:06 AM

Latest Report: Jul 24, 2016 at 6:20 AM


Visibility: N/A

Pressure: 30.09 "Hg

Humidity: 100%

Dew Point: 59 °F

Location of EmsdettenLocation

Past Weather in Emsdetten — Graph

°F

Emsdetten Temperature Yesterday

Maximum temperature yesterday: 77 °F (at 5:50 PM)
Minimum temperature yesterday: 63 °F (at 11:20 PM)
Average temperature yesterday: 70 °F

High & Low Weather Summary for the Past Weeks

 TemperatureHumidityPressure
High93 °F (Jul 20, 3:50 PM)100% (Jul 13, 2:50 AM)30.27 "Hg (Jul 13, 2:50 AM)
Low48 °F (Jul 14, 5:20 AM)23% (Jul 19, 12:50 PM)29.74 "Hg (Jul 10, 7:20 PM)
Average68 °F71%30.03 "Hg
* Reported Jul 9 5:20 AM — Jul 24 5:50 AM, Emsdetten, Weather by CustomWeather, © 2016

Note: Actual official high and low records may vary slightly from our data, if they occured in-between our weather recording intervals... More about our weather records

Advertising

Emsdetten Weather History for the Previous 24 Hours

Scroll right to see more
 ConditionsComfort  
Time TempWeatherWind HumidityBarometerVisibility
5:50 AM
Sun, Jul 24
59 °FLight fog.No wind100%30.09 "HgN/A
5:20 AM59 °FLight fog.No wind94%30.09 "HgN/A
4:50 AM59 °FFog.No wind94%30.09 "HgN/A
4:20 AM59 °FFog.No wind100%30.09 "HgN/A
3:50 AM59 °FFog.No wind100%30.09 "HgN/A
3:20 AM59 °FFog.No wind100%30.09 "HgN/A
2:50 AM61 °FFog.No wind94%30.09 "HgN/A
2:20 AM61 °FFog.No wind94%30.09 "HgN/A
1:50 AM61 °FFog.No wind94%30.09 "HgN/A
1:20 AM63 °FClear.No wind94%30.09 "Hg10 mi
12:50 AM63 °FClear.No wind94%30.09 "Hg10 mi
12:20 AM63 °FClear.No wind94%30.09 "Hg10 mi
11:50 PM
Sat, Jul 23
64 °FClear.No wind88%30.09 "Hg10 mi
11:20 PM63 °FClear.No wind88%30.09 "Hg10 mi
10:50 PM66 °FClear.1 mph83%30.09 "Hg10 mi
10:20 PM66 °FSunny.No wind78%30.09 "Hg10 mi
9:50 PM68 °FSunny.No wind78%30.09 "Hg10 mi
9:20 PM70 °FSunny.No wind73%30.09 "Hg10 mi
8:50 PM72 °FSunny.2 mph65%30.07 "Hg10 mi
8:20 PM73 °FPassing clouds.3 mph61%30.07 "HgN/A
7:50 PM75 °FPartly sunny.3 mph57%30.07 "HgN/A
7:20 PM77 °FPartly sunny.2 mph54%30.07 "HgN/A
6:50 PM77 °FPartly sunny.2 mph51%30.07 "HgN/A
6:20 PM77 °FScattered clouds.2 mph57%30.07 "HgN/A
5:50 PM77 °FScattered clouds.2 mph57%30.07 "HgN/A
5:20 PM75 °FScattered clouds.2 mph61%30.09 "HgN/A
4:50 PM75 °FBroken clouds.2 mph65%30.09 "HgN/A
4:20 PM75 °FBroken clouds.5 mph69%30.09 "HgN/A
3:50 PM75 °FBroken clouds.5 mph65%30.09 "HgN/A
3:20 PM75 °FBroken clouds.2 mph65%30.09 "HgN/A
2:50 PM75 °FOvercast.3 mph69%30.09 "HgN/A
2:20 PM73 °FOvercast.3 mph74%30.09 "Hg6 mi
1:50 PM72 °FOvercast.6 mph83%30.09 "Hg6 mi
1:20 PM72 °FClear.5 mph78%30.09 "Hg6 mi
12:50 PM72 °FOvercast.6 mph78%30.09 "Hg6 mi
12:20 PM72 °FMostly cloudy.7 mph78%30.09 "Hg5 mi
11:50 AM70 °FPartly sunny.8 mph78%30.07 "Hg5 mi
11:20 AM72 °FPartly sunny.7 mph78%30.07 "Hg4 mi
10:50 AM70 °FBroken clouds.7 mph83%30.07 "Hg4 mi
10:20 AM72 °FBroken clouds.9 mph78%30.07 "Hg4 mi
9:50 AM68 °FBroken clouds.9 mph83%30.07 "Hg4 mi
9:20 AM68 °FFog.8 mph88%30.07 "Hg3 mi
8:50 AM66 °FFog.7 mph88%30.07 "Hg2 mi
8:20 AM66 °FFog.6 mph94%30.07 "Hg2 mi
7:50 AM66 °FFog.5 mph94%30.04 "Hg2 mi
7:20 AM66 °FFog.3 mph94%30.04 "Hg2 mi
Weather by CustomWeather, © 2016

See weather overviewHow to use our weather pages